Showing default

KUIPER-00222, 67782

Orbit data source: Space-Track

KUIPER-00222, 67782 is a payload satellite owned by Kuiper Systems (US) in LEO that was launched on Thu, 12 Feb 2026 UTC via an ARIANE 64 launch vehicle from the French Guiana (FRGUI). Payload-class satellites include a variety of spacecraft equipped with specific instruments for various scientific and technological missions. These include communications satellites like Starlink; space stations such as the ISS; scientific satellites like the Hubble; Earth observation satellites from companies like Planet Labs, Umbra, and HawkEye 360; GPS; miniature CubeSats for education and research; and military/defense satellites.

Loading next visibility...
Identifier
67782, 2026-030U
Orbit
LEO
Country
Flag of USUS
Related business
Manufacturer
Kuiper Systems
Mission
Operational Commercial Communications
Bus & Motor
KUIPER, Unknown motor
Mass
~490 kg wet, ~490 kg dry
Launch date (UTC)
2026-02-12 (4 months ago)
Launch vehicle
ARIANE 64
Launch site
French Guiana (FRGUI)
Object type
Payload
Rocket body
Debris
Shape & HBR
Box + 2 Pan, 3.4 m
Radar Cross Section
2.326 m², Large (>1 m²)

Expand to show TLE details & history
Last TLE update: 22 hours ago

TLE from 22 hours ago
0 KUIPER-00222
1 67782U 26030U   26170.97302122 -.00001732  00000-0 -19815-3 0  9995
2 67782  51.9006 108.4597 0001098 110.3275 249.7805 14.79937536 20498
Epoch: 2026-06-19T23:21Z
TLE epoch observation values (Epoch: 2026-06-19T23:21:09.033Z)
Latitude
-0.00005°
Longitude
-150.0223°
Altitude
630.534 km
Speed
7.544 km/s
True Right ascension
07h 13m 50s
True Declination
0° 00' 00"
Sunlit
Object was in daylight at epoch
Visualization orbit readout
Latitude
Unknown
Longitude
Unknown
Altitude
Unknown
Speed
Unknown
Apparent Right ascension
Unknown
Apparent Declination
Unknown
Sunlit
N/A
Visualization observer readout
Local Sidereal Time
08:41:52
Azimuth
Unknown
Elevation
Unknown
Doppler factor
Unknown
Orbital elements
Apogee altitude
630.742 km
Perigee altitude
629.203 km
Semi-major axis
7,008.109 km
Eccentricity
0.00011
Inclination
51.9006°
RAAN
108.4597°
Arg. of periapsis
110.3275°
True anomaly
249.76869°
Mean anomaly
249.7805°
Eccentric anomaly
249.7746°
Mean motion
3.69949 °/min
Orbital period
97.31 mins
BSTAR
-0.00019815
Loading maneuver chart data...
Computing Atmospheric mass density...
Loading historical data...
Loading historical data...
Loading historical data...
Loading historical data...
Loading historical data...
Loading historical data...
Loading historical data...

Documentation

Showing up to 5 results
|